[[{"header":{"parameterUnit":"m.s-1","parameterCategory":1,"la1":30.2991,"la2":30.254,"lo1":-89.0895,"lo2":-89.0444,"dy":0.0017,"dx":0.0017,"nx":28,"ny":28,"refTime":"2025-04-12T09:00:00:Z","depth":0,"parameterNumber":2,"parameterNumberName":"U-component_of_WINDS"},"data":[0,0,0,0,0,0,0,0,0,0,0,0,0,0,0,0,0,0,0,0,0,0,0,0,0,0,0,0,0,0,0,0,0,0,0,0,0,0,0,0,0,0,0,0,0,0,0,0,0,0,0,0,0,0,0,0,0,0,-3.1703,-3.1704,0,-3.1777,-3.1778,-3.1779,-3.1713,-3.171,-3.1708,-3.1705,-3.1781,-3.1785,-3.179,0,0,0,0,0,0,0,0,0,0,0,0,0,-3.1502,-3.1506,-3.1703,-3.1704,-3.1705,-3.1777,-3.1778,-3.1779,-3.1714,-3.171,-3.1707,-3.1704,-3.1779,-3.1785,-3.179,0,0,0,0,0,0,0,0,0,0,0,0,0,-3.1584,-3.1507,-3.1703,-3.1681,-3.1679,-3.1777,-3.1778,-3.1779,-3.1714,-3.171,-3.1706,-3.1702,-3.1778,-3.1784,-3.1791,-3.1914,0,0,-3.1812,-3.1815,0,0,0,0,0,0,0,0,-3.1579,-3.1591,-3.1683,-3.1682,-3.1681,-3.1732,-3.1735,-3.1824,-3.1715,-3.1701,-3.1705,-3.17,-3.1768,-3.1775,-3.1798,-3.1917,-3.192,-3.1812,-3.1816,-3.1819,-3.1821,0,0,0,0,0,0,0,-3.1574,-3.1588,-3.1732,-3.1684,-3.1683,-3.1666,-3.1674,-3.1752,-3.1756,-3.1702,-3.1697,-3.1707,-3.1766,-3.1792,-3.1799,-3.1922,-3.1812,-3.1818,-3.1822,-3.1825,-3.2143,-3.2147,0,0,0,0,0,0,-3.1571,-3.1584,-3.173,-3.1734,-3.1619,-3.1673,-3.1681,-3.172,-3.1755,-3.1757,-3.171,-3.1704,-3.1782,-3.1791,-3.1802,-3.1945,-3.1819,-3.1826,-3.1829,-3.2138,-3.2143,-3.2148,0,0,0,0,0,0,-3.1567,-3.1584,-3.1727,-3.1658,-3.1675,-3.1681,-3.1725,-3.1723,-3.1748,-3.1762,-3.1762,-3.1735,-3.1779,-3.1792,-3.1886,-3.1947,-3.1829,-3.1835,-3.2133,-3.214,-3.2146,-3.2236,0,0,0,0,0,0,-3.1561,-3.1583,-3.1631,-3.1659,-3.1679,-3.1811,-3.1728,-3.1728,-3.176,-3.1752,-3.1785,-3.1787,-3.1777,-3.1876,-3.1892,-3.1954,-3.184,-3.2128,-3.2136,-3.2144,-3.2227,-3.2244,-3.2259,0,0,0,0,0,-3.1554,-3.1653,-3.1633,-3.1651,-3.1738,-3.1814,-3.1825,-3.1812,-3.1765,-3.1812,-3.1821,-3.1785,-3.1938,-3.1886,-3.1904,-3.1969,-3.2124,-3.2134,-3.2143,-3.222,-3.2241,-3.2259,0,0,0,0,0,0,-3.1632,-3.1657,-3.1635,-3.1746,-3.1779,-3.1803,-3.1862,-3.1835,-3.1881,-3.1872,-3.1854,-3.1862,-3.196,-3.1974,-3.1916,-3.2088,-3.2023,-3.2037,-3.2075,-3.2096,-3.2111,-3.2105,-3.1846,0,0,0,0,0,-3.1662,-3.1722,-3.1741,-3.1837,-3.1855,-3.1856,-3.1889,-3.1876,-3.1908,-3.1922,-3.1937,-3.1969,-3.2024,-3.2061,-3.2113,-3.2229,-3.2234,-3.2283,-3.2299,-3.2312,-3.2324,-3.2384,-3.2405,-3.218,-3.218,-3.218,0,0,-3.1725,-3.1746,-3.1785,-3.1853,-3.1877,-3.1938,-3.1868,-3.1937,-3.1982,-3.1932,-3.202,-3.2033,-3.2068,-3.2173,-3.222,-3.2188,-3.2387,-3.2324,-3.2335,-3.2339,-3.2396,-3.2417,-3.2436,-3.2187,-3.2186,-3.2185,0,0,-3.187,-3.1893,-3.1975,-3.1999,-3.2036,-3.2036,-3.2055,-3.2084,-3.209,-3.2179,-3.2142,-3.2195,-3.2291,-3.2317,-3.2343,-3.2496,-3.2465,-3.2514,-3.2597,-3.2656,-3.2673,-3.2689,-3.2741,-3.2761,-3.2526,-3.2526,-3.2526,0,-3.1943,-3.2035,-3.202,-3.2091,-3.2121,-3.2079,-3.2161,-3.2186,-3.2237,-3.2258,-3.2222,-3.234,-3.2361,-3.247,-3.2507,-3.253,-3.2551,-3.2509,-3.2672,-3.2688,-3.2702,-3.2751,-3.2771,-3.2532,-3.2531,-3.253,-3.253,0,-3.2122,-3.2186,-3.2248,-3.2298,-3.2335,-3.2412,-3.2407,-3.2447,-3.2431,-3.2434,-3.2524,-3.2548,-3.2602,-3.2627,-3.2613,-3.2734,-3.2713,-3.2675,-3.2608,-3.2729,-3.2775,-3.2794,-3.254,-3.2538,-3.2536,-3.2535,0,0,-3.2318,-3.2358,-3.238,-3.2401,-3.2438,-3.2487,-3.2561,-3.2614,-3.2647,-3.2684,-3.2744,-3.2825,-3.279,-3.2819,-3.2807,-3.2859,-3.2976,-3.2814,-3.2814,-3.2841,-3.3108,-3.3135,-3.3157,-3.2956,-3.296,-3.2963,-3.3104,0,-3.2462,-3.259,-3.2578,-3.2699,-3.2757,-3.2717,-3.2781,-3.281,-3.2815,-3.2864,-3.287,-3.2927,-3.2877,-3.2894,-3.2944,-3.2951,-3.3029,-3.2941,-3.301,-3.3013,-3.3,-3.3182,-3.321,-3.3343,-3.3123,-3.3126,-3.3128,0,-3.2648,-3.269,-3.2817,-3.2842,-3.2866,-3.2924,-3.297,-3.3019,-3.305,-3.305,-3.3082,-3.3061,-3.3133,-3.3067,-3.3166,-3.3106,-3.3134,-3.3142,-3.3147,-3.315,-3.3076,-3.3188,-3.3385,-3.3404,-3.3157,-3.3155,-3.3152,0,-3.2774,-3.2864,-3.295,-3.297,-3.3003,-3.3044,-3.3059,-3.3087,-3.3119,-3.3159,-3.3179,-3.3229,-3.3255,-3.3293,-3.3285,-3.3238,-3.3385,-3.3319,-3.3385,-3.3386,-3.3416,-3.3414,-3.3618,-3.3439,-3.3438,-3.3438,-3.3438,0,-3.2936,-3.3014,-3.3007,-3.306,-3.3146,-3.3131,-3.3217,-3.3227,-3.3252,-3.3305,-3.3275,-3.3325,-3.3312,-3.3362,-3.3357,-3.3438,-3.3451,-3.3451,-3.3448,-3.3453,-3.3452,-3.3469,-3.3458,-3.3443,-3.3442,-3.3441,-3.344,0,-3.3091,-3.309,-3.3181,-3.3204,-3.3212,-3.3274,-3.3293,-3.3343,-3.3345,-3.3413,-3.3428,-3.3432,-3.3489,-3.3485,-3.355,-3.3546,-3.3645,-3.3633,-3.3635,-3.3631,-3.3697,-3.3689,-3.3916,-3.3944,-3.375,-3.3751,-3.3753,0,-3.3192,-3.3251,-3.3281,-3.3314,-3.3332,-3.3387,-3.3419,-3.3407,-3.3442,-3.3481,-3.3525,-3.358,-3.3622,-3.3715,-3.3723,-3.3772,-3.3759,-3.3835,-3.3766,-3.3767,-3.3756,-3.3752,-3.3756,-3.3847,-3.385,-3.3851,-3.3853,0,-3.3372,-3.3368,-3.3416,-3.3463,-3.3502,-3.3539,-3.3572,-3.3601,-3.3592,-3.3633,-3.3691,-3.3724,-3.3789,-3.3842,-3.3889,-3.3904,-3.3876,-3.3875,-3.3892,-3.3896,-3.3893,-3.3892,-3.3669,-3.3869,-3.3868,-3.3866,-3.3866,-3.3865,-3.3501,-3.3551,-3.3579,-3.3632,-3.3656,-3.3688,-3.3734,-3.3743,-3.3791,-3.3842,-3.3833,-3.3897,-3.3925,-3.3984,-3.4004,-3.4053,-3.4026,-3.4052,-3.4058,-3.4064,-3.407,-3.3888,-3.4062,-3.4062,-3.4061,-3.4061,-3.406,0,-3.3677,-3.3693,-3.3742,-3.3789,-3.3831,-3.3803,-3.3838,-3.3874,-3.3931,-3.396,-3.4002,-3.4067,-3.4119,-3.4131,-3.418,-3.4217,-3.4205,-3.423,-3.4225,-3.4229,-3.4093,-3.4072,-3.4238,-3.4238,-3.4238,-3.4238,-3.4238,-3.4238,-3.3773,-3.3854,-3.3854,-3.3946,-3.3961,-3.4024,-3.4046,-3.4074,-3.4096,-3.4171,-3.4213,-3.4221,-3.4242,-3.4292,-3.4338,-3.434,-3.4358,-3.4387,-3.4384,-3.4256,-3.4239,-3.4222,-3.4201,-3.4392,-3.4392,-3.4515,-3.4516,-3.4517]},{"header":{"parameterUnit":"m.s-1","parameterCategory":1,"la1":30.2991,"la2":30.254,"lo1":-89.0895,"lo2":-89.0444,"dy":0.0017,"dx":0.0017,"nx":28,"ny":28,"refTime":"2025-04-12T09:00:00:Z","depth":0,"parameterNumber":3,"parameterNumberName":"V-component_of_WINDS"},"data":[0,0,0,0,0,0,0,0,0,0,0,0,0,0,0,0,0,0,0,0,0,0,0,0,0,0,0,0,0,0,0,0,0,0,0,0,0,0,0,0,0,0,0,0,0,0,0,0,0,0,0,0,0,0,0,0,0,0,-0.6096,-0.6096,0,-0.6146,-0.6146,-0.6147,-0.6163,-0.6162,-0.6162,-0.6162,-0.6211,-0.6212,-0.6214,0,0,0,0,0,0,0,0,0,0,0,0,0,-0.6012,-0.6013,-0.6096,-0.6097,-0.6097,-0.6145,-0.6146,-0.6147,-0.6163,-0.6162,-0.6162,-0.6162,-0.621,-0.6212,-0.6214,0,0,0,0,0,0,0,0,0,0,0,0,0,-0.6054,-0.6014,-0.6096,-0.6111,-0.6113,-0.6145,-0.6146,-0.6147,-0.6163,-0.6162,-0.6162,-0.6162,-0.621,-0.6212,-0.6214,-0.6235,0,0,-0.6221,-0.6222,0,0,0,0,0,0,0,0,-0.6051,-0.6057,-0.6108,-0.611,-0.6112,-0.6148,-0.6134,-0.6176,-0.6163,-0.6144,-0.6162,-0.6161,-0.619,-0.6194,-0.6204,-0.6237,-0.6239,-0.6221,-0.6222,-0.6223,-0.6224,0,0,0,0,0,0,0,-0.6048,-0.6055,-0.6115,-0.6109,-0.6111,-0.6114,-0.612,-0.6142,-0.6168,-0.6145,-0.6147,-0.6152,-0.6191,-0.6201,-0.6205,-0.624,-0.6221,-0.6223,-0.6224,-0.6225,-0.6291,-0.6292,0,0,0,0,0,0,-0.6043,-0.6052,-0.6114,-0.6117,-0.608,-0.6116,-0.6122,-0.6136,-0.6168,-0.6172,-0.6153,-0.6153,-0.6198,-0.6202,-0.6207,-0.6233,-0.6223,-0.6226,-0.6227,-0.6291,-0.6291,-0.6292,0,0,0,0,0,0,-0.6041,-0.6049,-0.6112,-0.6085,-0.6093,-0.6118,-0.6134,-0.6138,-0.6148,-0.6173,-0.6178,-0.6159,-0.6198,-0.6203,-0.6227,-0.6234,-0.6227,-0.6229,-0.629,-0.6291,-0.6292,-0.6285,0,0,0,0,0,0,-0.6039,-0.6048,-0.6057,-0.6085,-0.6095,-0.6133,-0.6134,-0.6139,-0.6152,-0.6153,-0.618,-0.6185,-0.6198,-0.6224,-0.623,-0.6237,-0.623,-0.629,-0.6291,-0.6291,-0.6284,-0.6285,-0.6285,0,0,0,0,0,-0.6036,-0.6052,-0.6057,-0.6064,-0.6106,-0.6133,-0.6139,-0.6154,-0.6153,-0.6162,-0.6177,-0.6184,-0.6233,-0.6226,-0.6233,-0.6241,-0.629,-0.6291,-0.6291,-0.6284,-0.6285,-0.6285,0,0,0,0,0,0,-0.6024,-0.6056,-0.6062,-0.6088,-0.6108,-0.6136,-0.6147,-0.6154,-0.6174,-0.6174,-0.6192,-0.6198,-0.622,-0.6233,-0.6226,-0.6262,-0.6261,-0.6264,-0.6254,-0.6254,-0.6255,-0.6251,-0.6232,0,0,0,0,0,-0.6024,-0.6044,-0.6071,-0.6092,-0.6101,-0.6122,-0.6135,-0.6145,-0.6166,-0.6174,-0.6192,-0.6211,-0.623,-0.6243,-0.6262,-0.6286,-0.6292,-0.6295,-0.6295,-0.6296,-0.6298,-0.631,-0.6312,-0.6295,-0.6295,-0.6295,0,0,-0.6025,-0.6046,-0.6057,-0.609,-0.6106,-0.6126,-0.6129,-0.615,-0.6164,-0.6177,-0.6201,-0.6214,-0.6237,-0.626,-0.6272,-0.6272,-0.6303,-0.6297,-0.6297,-0.6299,-0.6311,-0.6313,-0.6314,-0.6295,-0.6295,-0.6295,0,0,-0.6037,-0.6055,-0.6074,-0.609,-0.6115,-0.6129,-0.6133,-0.616,-0.6169,-0.6194,-0.6203,-0.622,-0.6254,-0.6269,-0.6281,-0.6298,-0.6304,-0.6304,-0.6307,-0.6319,-0.632,-0.6321,-0.6327,-0.6329,-0.6305,-0.6305,-0.6305,0,-0.6035,-0.6066,-0.6082,-0.6102,-0.6116,-0.6129,-0.6147,-0.6162,-0.6192,-0.6201,-0.62,-0.6242,-0.6258,-0.6286,-0.629,-0.6299,-0.6304,-0.6301,-0.6319,-0.632,-0.6322,-0.6327,-0.6329,-0.6305,-0.6305,-0.6305,-0.6305,0,-0.6062,-0.6083,-0.6095,-0.6124,-0.6139,-0.6158,-0.6176,-0.6189,-0.6198,-0.6211,-0.6235,-0.6255,-0.6278,-0.6286,-0.6294,-0.6314,-0.6313,-0.6315,-0.6315,-0.6323,-0.6328,-0.6331,-0.6305,-0.6305,-0.6305,-0.6305,0,0,-0.6068,-0.6106,-0.611,-0.6123,-0.6151,-0.6167,-0.6186,-0.6209,-0.622,-0.6239,-0.6256,-0.6283,-0.6286,-0.6299,-0.6309,-0.632,-0.6332,-0.6321,-0.6322,-0.6323,-0.6354,-0.6352,-0.6355,-0.6336,-0.6336,-0.6337,-0.6352,0,-0.6084,-0.612,-0.6135,-0.6163,-0.6182,-0.6194,-0.6211,-0.6229,-0.6242,-0.6259,-0.6272,-0.6292,-0.6294,-0.6302,-0.6313,-0.6328,-0.6338,-0.6327,-0.635,-0.6351,-0.6345,-0.6358,-0.6356,-0.637,-0.6354,-0.6355,-0.6355,0,-0.6107,-0.6127,-0.6158,-0.6183,-0.6191,-0.6206,-0.6229,-0.6245,-0.6266,-0.6274,-0.6289,-0.6298,-0.6318,-0.6315,-0.6342,-0.6334,-0.6344,-0.6353,-0.6354,-0.6357,-0.6354,-0.6361,-0.6375,-0.6377,-0.6359,-0.6358,-0.6358,0,-0.6109,-0.6143,-0.6166,-0.6177,-0.6207,-0.6217,-0.6229,-0.625,-0.6262,-0.6281,-0.629,-0.6311,-0.6322,-0.6337,-0.6352,-0.6349,-0.6377,-0.6376,-0.6384,-0.6384,-0.639,-0.6389,-0.6406,-0.6396,-0.6396,-0.6396,-0.6396,0,-0.6125,-0.6143,-0.6167,-0.6181,-0.6202,-0.6218,-0.6237,-0.6251,-0.6268,-0.6285,-0.6295,-0.631,-0.6328,-0.6345,-0.6356,-0.6376,-0.6381,-0.6388,-0.6391,-0.6387,-0.6386,-0.6395,-0.6394,-0.6397,-0.6396,-0.6396,-0.6396,0,-0.613,-0.6147,-0.6173,-0.6199,-0.6206,-0.622,-0.6241,-0.6255,-0.6268,-0.6288,-0.6293,-0.6313,-0.6334,-0.6349,-0.6375,-0.6383,-0.6404,-0.6407,-0.6397,-0.6399,-0.6406,-0.6406,-0.6429,-0.6432,-0.642,-0.642,-0.642,0,-0.614,-0.6154,-0.6181,-0.6193,-0.6206,-0.6225,-0.6238,-0.6254,-0.6267,-0.6291,-0.6302,-0.6323,-0.634,-0.6372,-0.6388,-0.6408,-0.6411,-0.6418,-0.6414,-0.641,-0.6412,-0.6411,-0.6412,-0.6419,-0.6419,-0.6419,-0.6419,0,-0.6154,-0.6162,-0.6181,-0.6203,-0.6218,-0.6236,-0.6254,-0.6263,-0.6282,-0.6296,-0.6317,-0.6331,-0.6357,-0.6378,-0.6399,-0.6411,-0.6418,-0.642,-0.6423,-0.6419,-0.6413,-0.6417,-0.6399,-0.6419,-0.6419,-0.6419,-0.6419,-0.6419,-0.6162,-0.6175,-0.6196,-0.6217,-0.6232,-0.6248,-0.6262,-0.6277,-0.6295,-0.6319,-0.6326,-0.6348,-0.6367,-0.6396,-0.6409,-0.6425,-0.6425,-0.643,-0.6431,-0.6432,-0.6431,-0.641,-0.6429,-0.6429,-0.6429,-0.6429,-0.6429,0,-0.6177,-0.6191,-0.621,-0.6235,-0.6251,-0.6256,-0.6276,-0.6289,-0.6308,-0.6326,-0.6343,-0.6366,-0.6386,-0.6404,-0.6424,-0.6434,-0.6437,-0.6438,-0.6438,-0.6441,-0.643,-0.6425,-0.6435,-0.6435,-0.6435,-0.6435,-0.6435,-0.6435,-0.6187,-0.6209,-0.6219,-0.6249,-0.6262,-0.6284,-0.6295,-0.631,-0.6324,-0.635,-0.6367,-0.6378,-0.6396,-0.6417,-0.6435,-0.644,-0.6447,-0.6447,-0.6452,-0.6442,-0.6441,-0.6441,-0.6437,-0.6448,-0.6448,-0.6462,-0.6462,-0.6462]}]]